This is the latest recevied weather packets stored in our database for station/object M0SDM. If no packets are shown the sender has not sent any weather packets the latest 10 day(s).
| Time | Temp. | Humidity | Pressure | Rain* | Wind** | Luminosity | Snow |
|---|---|---|---|---|---|---|---|
| 1777948821 | 6.67° C | 98% | 1013.8 hPa | 0 mm | - | - | - |
| 1777947922 | 7.22° C | 98% | 1014.2 hPa | 0 mm | - | - | - |
| 1777947021 | 7.78° C | 98% | 1014 hPa | 0 mm | - | - | - |
| 1777946121 | 7.78° C | 98% | 1014.3 hPa | 0 mm | - | - | - |
| 1777945221 | 7.78° C | 98% | 1014.4 hPa | 0 mm | - | - | - |
| 1777944321 | 7.78° C | 98% | 1014.3 hPa | 0 mm | - | - | - |
| 1777943421 | 7.22° C | 97% | 1014.4 hPa | 0 mm | - | - | - |
| 1777942521 | 7.22° C | 97% | 1014.3 hPa | 0 mm | - | - | - |
| 1777941621 | 7.22° C | 97% | 1014.7 hPa | 0 mm | - | - | - |
| 1777940721 | 7.22° C | 97% | 1014.6 hPa | 0 mm | - | - | - |
| 1777939821 | 7.78° C | 97% | 1014.7 hPa | 0 mm | - | - | - |
| 1777938921 | 7.78° C | 97% | 1014.7 hPa | 0 mm | - | - | - |
| 1777938021 | 7.78° C | 96% | 1014.8 hPa | 0 mm | - | - | - |
| 1777937121 | 7.78° C | 96% | 1015 hPa | 0 mm | - | - | - |
| 1777936221 | 8.33° C | 96% | 1014.8 hPa | 0 mm | - | - | - |
| 1777935321 | 8.33° C | 96% | 1014.8 hPa | 0 mm | - | - | - |
| 1777934421 | 8.33° C | 95% | 1015 hPa | 0 mm | - | - | - |
| 1777933521 | 8.89° C | 95% | 1014.8 hPa | 0 mm | - | - | - |
| 1777932621 | 8.89° C | 94% | 1015 hPa | 0 mm | - | - | - |
| 1777931721 | 9.44° C | 93% | 1014.8 hPa | 0 mm | - | - | - |
| 1777930821 | 10° C | 93% | 1014.8 hPa | 0 mm | - | - | - |
| 1777929921 | 10.56° C | 93% | 1015.1 hPa | 0 mm | - | - | - |
| 1777929021 | 11.11° C | 92% | 1014.8 hPa | 0 mm | - | - | - |
| 1777928121 | 11.11° C | 92% | 1014.7 hPa | 0 mm | - | - | - |
| 1777927221 | 10.56° C | 91% | 1014.8 hPa | 0 mm | - | - | - |
* Rain latest hour (hover to see other rain measurements)
** Current wind speed in m/s (hover to see current wind gust speed)